Weather History for Huntsville, AL

Change the Weather History Date:

Tuesday, November 20, 2012

  Actual Average Record
Temperature  
Mean Temperature 55 °F 51 °F  
Max Temperature 69 °F 62 °F 79 °F (1942)
Min Temperature 40 °F 41 °F 10 °F (1914)
Degree Days  
Heating Degree Days 10 14  
Month to date heating degree days 289 218  
Since 1 July heating degree days 469 369  
Cooling Degree Days 0 0  
Month to date cooling degree days 0 7  
Year to date cooling degree days 2094 1947  
Growing Degree Days 4 (Base 50)    
Moisture  
Dew Point 41 °F    
Average Humidity 64    
Maximum Humidity 92    
Minimum Humidity 35    
Precipitation  
Precipitation 0.00 in 0.18 in 1.31 in (1991)
Month to date precipitation 1.82 3.07  
Year to date precipitation 45.28 46.70  
Snow  
Snow 0.00 in - - ()
Month to date snowfall 0.0  
Since 1 July snowfall 0.0  
Since 1 September snowfall 0.0  
Snow Depth 0.00 in    
Sea Level Pressure  
Sea Level Pressure 30.15 in    
Wind  
Wind Speed 2 mph (SW)    
Max Wind Speed 9 mph    
Max Gust Speed 13 mph    
Visibility 10 miles    
Events Fog    
T = Trace of Precipitation, MM = Missing Value Source: NWS Daily Summary

Daily Weather History Graph

Daily Weather History Graph

Search for Another Location

Airport:

Trip Planner

Search our weather history database for the weather conditions in past years. The results will help you decide how hot, cold, wet, or windy it might be!

Date:

Astronomy

Nov. 20, 2012 Rise Set
Actual Time 6:26 AM CST 4:39 PM CST
Civil Twilight 5:59 AM CST 5:06 PM CST
Nautical Twilight 5:28 AM CST 5:37 PM CST
Astronomical Twilight 4:58 AM CST 6:07 PM CST
Moon 12:08 PM CST (11/20) No Moon Set
Length of Visible Light 11h 07m
Length of Day
10h 13m
First Quarter, 51% of the Moon is Illuminated
Nov 20
First Quarter
Nov 28
Full
Dec 6
Last Quarter
Dec 13
New
Dec 19
First Quarter

Hourly Weather History & Observations

Time (CST) Temp. Windchill Dew Point Humidity Pressure Visibility Wind Dir Wind Speed Gust Speed Precip Events Conditions
12:53 AM 46.0 °F 44.8 °F 41.0 °F 83% 30.18 in 10.0 mi ESE 3.5 mph - N/A   Mostly Cloudy
1:53 AM 44.6 °F - 42.8 °F 93% 30.19 in 10.0 mi Calm Calm - N/A   Mostly Cloudy
2:53 AM 44.1 °F 42.5 °F 39.9 °F 85% 30.17 in 10.0 mi ESE 3.5 mph - N/A   Mostly Cloudy
3:53 AM 44.1 °F - 39.0 °F 82% 30.18 in 10.0 mi Calm Calm - N/A   Scattered Clouds
4:53 AM 42.1 °F - 39.0 °F 89% 30.19 in 9.0 mi Calm Calm - N/A   Scattered Clouds
5:53 AM 39.2 °F 37.0 °F 37.4 °F 93% 30.19 in 10.0 mi SSE 3.5 mph - N/A   Scattered Clouds
6:53 AM 39.9 °F - 37.9 °F 93% 30.22 in 8.0 mi Calm Calm - N/A Fog Shallow Fog
7:53 AM 46.9 °F - 43.0 °F 86% 30.22 in 8.0 mi Calm Calm - N/A   Partly Cloudy
8:53 AM 53.1 °F - 45.0 °F 74% 30.22 in 10.0 mi Calm Calm - N/A   Partly Cloudy
9:53 AM 59.0 °F - 44.1 °F 58% 30.20 in 10.0 mi Calm Calm - N/A   Partly Cloudy
10:53 AM 64.0 °F - 44.1 °F 48% 30.17 in 10.0 mi Calm Calm - N/A   Partly Cloudy
11:53 AM 66.0 °F - 43.0 °F 43% 30.14 in 10.0 mi Calm Calm - N/A   Partly Cloudy
12:53 PM 68.0 °F - 42.1 °F 39% 30.12 in 10.0 mi WNW 6.9 mph - N/A   Partly Cloudy
1:53 PM 69.1 °F - 42.1 °F 38% 30.11 in 10.0 mi West 6.9 mph - N/A   Scattered Clouds
2:53 PM 68.0 °F - 39.9 °F 36% 30.09 in 10.0 mi Variable 4.6 mph - N/A   Mostly Cloudy
3:53 PM 66.0 °F - 41.0 °F 40% 30.09 in 10.0 mi West 4.6 mph - N/A   Scattered Clouds
4:53 PM 59.0 °F - 39.9 °F 49% 30.09 in 10.0 mi West 3.5 mph - N/A   Partly Cloudy
5:53 PM 60.1 °F - 39.0 °F 46% 30.09 in 10.0 mi Calm Calm - N/A   Partly Cloudy
6:53 PM 55.0 °F - 39.9 °F 57% 30.12 in 10.0 mi Calm Calm - N/A   Partly Cloudy
7:53 PM 52.0 °F - 39.9 °F 63% 30.13 in 10.0 mi Calm Calm - N/A   Scattered Clouds
8:53 PM 53.1 °F - 42.1 °F 66% 30.13 in 10.0 mi Calm Calm - N/A   Overcast
9:53 PM 53.1 °F - 42.1 °F 66% 30.13 in 10.0 mi Calm Calm - N/A   Overcast
10:53 PM 52.0 °F - 44.1 °F 74% 30.12 in 10.0 mi Calm Calm - N/A   Overcast
11:53 PM 53.1 °F - 44.1 °F 71% 30.12 in 10.0 mi Calm Calm - N/A   Overcast